Location: Unspecified
(0.0000°N, 0.0000°E)
Time: 23:51:19
(UTC+00:00)

S-56A Canister/Altair - Pass Details

Date: 03 October 2020
Orbit: 633 x 2499 km, 38.9° (Epoch: 28 October)

Event Time Altitude Azimuth Distance (km) Brightness Sun altitude
Rises 18:57:10 0° 331° (NNW) 5,674 12.3 -17.0°
Reaches altitude 10° 19:02:53 10° 348° (NNW) 4,328 11.4 -18.5°
Maximum altitude 19:09:56 19° 27° (NNE) 3,176 10.4 -20.2°
Enters shadow 19:12:02 17° 43° (NE) 3,097 10.2 -20.7°
Drops below altitude 10° 19:15:33 10° 68° (ENE) 3,339 - -21.6°
Sets 19:19:07 0° 86° (E) 3,996 - -22.5°
